Marysville, MI

3:49 PM EST on December 06, 2016 (GMT -0500)
Saint Clair County International

Weather History for KPHN - March, 2013

Change the Weather History Date:

Tuesday, March 19, 2013

  Actual Average (KMTC) Record (KMTC)
Temperature  
Mean Temperature 28 °F -  
Max Temperature 33 °F 43 °F 68 °F (2012)
Min Temperature 24 °F 27 °F 11 °F (1950)
Degree Days  
Heating Degree Days 36    
Moisture  
Dew Point 22 °F    
Average Humidity 81    
Maximum Humidity 100    
Minimum Humidity 69    
Precipitation  
Precipitation 0.00 in - - ()
Sea Level Pressure  
Sea Level Pressure 29.73 in    
Wind  
Wind Speed 10 mph (WSW)    
Max Wind Speed 16 mph    
Max Gust Speed 29 mph    
Visibility 9 miles    
Events Snow    
Averages and records for this station are not official NWS values.
T = Trace of Precipitation, MM = Missing Value Source: NWS Daily Summary

Daily Weather History Graph

Daily Weather History Graph

Search for Another Location

Airport or City:

Trip Planner

Search our weather history database for the weather conditions in past years. The results will help you decide how hot, cold, wet, or windy it might be!

Date:

Astronomy

Mar. 19, 2013 Rise Set
Actual Time 7:34 AM EDT 7:41 PM EDT
Civil Twilight 7:06 AM EDT 8:09 PM EDT
Nautical Twilight 6:33 AM EDT 8:42 PM EDT
Astronomical Twilight 5:59 AM EDT 9:16 PM EDT
Moon 12:15 PM EDT (3/19) 2:35 AM EDT (3/19)
Length of Visible Light 13h 03m
Length of Day
12h 06m
Waxing Crescent, 49% of the Moon is Illuminated
Mar 19
Waxing Crescent
Mar 19
First Quarter
Mar 27
Full
Apr 3
Last Quarter
Apr 10
New

Hourly Weather History & Observations

Time (EDT) Temp. Windchill Dew Point Humidity Pressure Visibility Wind Dir Wind Speed Gust Speed Precip Events Conditions
12:17 AM 33.8 °F 27.0 °F 33.8 °F 100% 29.58 in 10.0 mi WSW 8.1 mph - N/A   Overcast
12:36 AM 33.8 °F 28.6 °F 32.0 °F 93% 29.59 in 10.0 mi WSW 5.8 mph 16.1 mph N/A   Overcast
12:56 AM 33.8 °F 26.4 °F 32.0 °F 93% 29.59 in 10.0 mi WSW 9.2 mph - N/A   Overcast
1:17 AM 33.8 °F 26.4 °F 32.0 °F 93% 29.59 in 10.0 mi SW 9.2 mph - N/A   Overcast
1:36 AM 33.8 °F 26.4 °F 32.0 °F 93% 29.59 in 10.0 mi WSW 9.2 mph - N/A   Overcast
1:57 AM 33.8 °F 26.4 °F 32.0 °F 93% 29.59 in 10.0 mi SW 9.2 mph - N/A   Overcast
2:16 AM 33.8 °F 27.0 °F 32.0 °F 93% 29.60 in 10.0 mi SW 8.1 mph - N/A   Overcast
2:36 AM 33.8 °F 27.7 °F 32.0 °F 93% 29.60 in 10.0 mi SSW 6.9 mph - N/A   Overcast
2:57 AM 33.8 °F 27.0 °F 32.0 °F 93% 29.60 in 10.0 mi SSW 8.1 mph - N/A   Overcast
3:16 AM 33.8 °F 27.0 °F 32.0 °F 93% 29.60 in 10.0 mi SSW 8.1 mph - N/A   Overcast
3:36 AM 33.8 °F 27.7 °F 32.0 °F 93% 29.60 in 10.0 mi SSW 6.9 mph - N/A   Overcast
3:56 AM 33.8 °F 27.0 °F 32.0 °F 93% 29.60 in 10.0 mi South 8.1 mph - N/A   Overcast
4:16 AM 33.8 °F 27.0 °F 32.0 °F 93% 29.59 in 10.0 mi South 8.1 mph - N/A   Overcast
4:37 AM 33.8 °F 27.0 °F 32.0 °F 93% 29.60 in 10.0 mi West 8.1 mph - N/A   Overcast
4:56 AM 32.0 °F 24.2 °F 28.4 °F 87% 29.61 in 10.0 mi WSW 9.2 mph 18.4 mph N/A   Overcast
5:17 AM 32.0 °F 22.1 °F 28.4 °F 87% 29.62 in 10.0 mi West 13.8 mph 21.9 mph N/A   Overcast
5:36 AM 32.0 °F 22.5 °F 26.6 °F 80% 29.63 in 10.0 mi WSW 12.7 mph 23.0 mph N/A   Overcast
5:56 AM 30.2 °F 21.3 °F 24.8 °F 80% 29.64 in 10.0 mi West 10.4 mph - N/A   Overcast
6:17 AM 30.2 °F 19.8 °F 24.8 °F 80% 29.64 in 10.0 mi WSW 13.8 mph 19.6 mph N/A   Overcast
6:36 AM 28.4 °F 18.5 °F 23.0 °F 80% 29.66 in 10.0 mi West 11.5 mph 18.4 mph N/A   Overcast
6:57 AM 28.4 °F 19.7 °F 23.0 °F 80% 29.66 in 10.0 mi West 9.2 mph - N/A Snow Light Snow
7:16 AM 28.4 °F 19.1 °F 23.0 °F 80% 29.66 in 10.0 mi SW 10.4 mph 18.4 mph N/A   Overcast
7:36 AM 26.6 °F 15.7 °F 21.2 °F 80% 29.68 in 4.0 mi WSW 12.7 mph 18.4 mph N/A Snow Light Snow
7:57 AM 24.8 °F 14.6 °F 21.2 °F 86% 29.69 in 2.0 mi WSW 10.4 mph - N/A Snow Light Snow
8:16 AM 24.8 °F 14.6 °F 21.2 °F 86% 29.69 in 2.0 mi SW 10.4 mph 18.4 mph N/A Snow Light Snow
8:37 AM 24.8 °F 15.3 °F 19.4 °F 80% 29.70 in 10.0 mi West 9.2 mph 18.4 mph N/A   Overcast
8:56 AM 24.8 °F 14.0 °F 19.4 °F 80% 29.70 in 10.0 mi WSW 11.5 mph 16.1 mph N/A   Overcast
9:17 AM 24.8 °F 13.4 °F 19.4 °F 80% 29.70 in 4.0 mi WSW 12.7 mph 19.6 mph N/A Snow Light Snow
9:36 AM 24.8 °F 14.6 °F 19.4 °F 80% 29.70 in 10.0 mi WSW 10.4 mph 17.3 mph N/A Snow Light Snow
9:56 AM 24.8 °F 16.1 °F 19.4 °F 80% 29.70 in 10.0 mi West 8.1 mph 16.1 mph N/A   Overcast
10:16 AM 26.6 °F 17.5 °F 17.6 °F 69% 29.70 in 10.0 mi WSW 9.2 mph 17.3 mph N/A   Overcast
10:36 AM 26.6 °F 17.5 °F 17.6 °F 69% 29.70 in 10.0 mi WSW 9.2 mph 20.7 mph N/A   Overcast
10:57 AM 24.8 °F 15.3 °F 19.4 °F 80% 29.71 in 1.5 mi SW 9.2 mph 16.1 mph N/A Snow Light Snow
11:16 AM 26.6 °F 16.8 °F 17.6 °F 69% 29.71 in 10.0 mi West 10.4 mph 18.4 mph N/A   Overcast
11:37 AM 26.6 °F 16.8 °F 17.6 °F 69% 29.72 in 10.0 mi West 10.4 mph 17.3 mph N/A   Overcast
11:56 AM 24.8 °F 12.4 °F 17.6 °F 74% 29.72 in 7.0 mi WSW 15.0 mph 24.2 mph N/A Snow Light Snow
12:16 PM 26.6 °F 17.5 °F 17.6 °F 69% 29.72 in 10.0 mi WSW 9.2 mph 19.6 mph N/A   Overcast
12:37 PM 26.6 °F 15.2 °F 17.6 °F 69% 29.72 in 10.0 mi WSW 13.8 mph 23.0 mph N/A   Overcast
12:56 PM 26.6 °F 16.2 °F 19.4 °F 74% 29.73 in 10.0 mi WSW 11.5 mph 20.7 mph N/A   Overcast
1:17 PM 26.6 °F 20.0 °F 17.6 °F 69% 29.73 in 10.0 mi WSW 5.8 mph 18.4 mph N/A   Overcast
1:36 PM 26.6 °F 15.7 °F 19.4 °F 74% 29.74 in 7.0 mi WSW 12.7 mph 20.7 mph N/A Snow Light Snow
1:56 PM 26.6 °F 16.2 °F 19.4 °F 74% 29.74 in 5.0 mi WSW 11.5 mph 20.7 mph N/A Snow Light Snow
2:16 PM 26.6 °F 16.2 °F 19.4 °F 74% 29.74 in 4.0 mi SW 11.5 mph 18.4 mph N/A Snow Light Snow
2:36 PM 26.6 °F 16.8 °F 19.4 °F 74% 29.74 in 4.0 mi WSW 10.4 mph 18.4 mph N/A Snow Light Snow
2:57 PM 26.6 °F 15.7 °F 19.4 °F 74% 29.74 in 10.0 mi WSW 12.7 mph 19.6 mph N/A Snow Light Snow
3:16 PM 26.6 °F 18.2 °F 17.6 °F 69% 29.75 in 7.0 mi WSW 8.1 mph 23.0 mph N/A Snow Light Snow
3:36 PM 26.6 °F 14.3 °F 19.4 °F 74% 29.76 in 10.0 mi WSW 16.1 mph 20.7 mph N/A Snow Light Snow
3:56 PM 26.6 °F 14.7 °F 19.4 °F 74% 29.77 in 7.0 mi West 15.0 mph 26.5 mph N/A Snow Light Snow
4:16 PM 26.6 °F 14.7 °F 17.6 °F 69% 29.78 in 5.0 mi WSW 15.0 mph 28.8 mph N/A Snow Light Snow
4:37 PM 24.8 °F 13.4 °F 19.4 °F 80% 29.79 in 0.8 mi WSW 12.7 mph 21.9 mph N/A Snow Light Snow
4:56 PM 26.6 °F 17.5 °F 19.4 °F 74% 29.80 in 10.0 mi WSW 9.2 mph 18.4 mph N/A Snow Light Snow
5:16 PM 24.8 °F 14.0 °F 19.4 °F 80% 29.81 in 10.0 mi WSW 11.5 mph 21.9 mph N/A Snow Light Snow
5:37 PM 24.8 °F 14.0 °F 17.6 °F 74% 29.82 in 10.0 mi West 11.5 mph 24.2 mph N/A   Overcast
5:56 PM 24.8 °F 14.6 °F 17.6 °F 74% 29.82 in 7.0 mi West 10.4 mph 20.7 mph N/A Snow Light Snow
6:17 PM 24.8 °F 12.9 °F 17.6 °F 74% 29.82 in 10.0 mi WSW 13.8 mph 24.2 mph N/A   Overcast
6:36 PM 24.8 °F 12.9 °F 17.6 °F 74% 29.83 in 10.0 mi WSW 13.8 mph 19.6 mph N/A   Overcast
6:56 PM 24.8 °F 14.6 °F 17.6 °F 74% 29.84 in 10.0 mi WSW 10.4 mph 25.3 mph N/A   Overcast
7:17 PM 24.8 °F 14.0 °F 19.4 °F 80% 29.84 in 10.0 mi WSW 11.5 mph 20.7 mph N/A   Overcast
7:36 PM 24.8 °F 13.4 °F 17.6 °F 74% 29.85 in 10.0 mi West 12.7 mph 18.4 mph N/A   Overcast
7:57 PM 24.8 °F 15.3 °F 17.6 °F 74% 29.86 in 10.0 mi West 9.2 mph 20.7 mph N/A   Overcast
8:16 PM 24.8 °F 13.4 °F 17.6 °F 74% 29.86 in 10.0 mi West 12.7 mph 19.6 mph N/A   Overcast
8:37 PM 24.8 °F 15.3 °F 19.4 °F 80% 29.87 in 7.0 mi West 9.2 mph 19.6 mph N/A Snow Light Snow
8:56 PM 24.8 °F 14.6 °F 19.4 °F 80% 29.87 in 10.0 mi West 10.4 mph 16.1 mph N/A Snow Light Snow
9:16 PM 24.8 °F 15.3 °F 19.4 °F 80% 29.88 in 7.0 mi West 9.2 mph 17.3 mph N/A Snow Light Snow
9:37 PM 24.8 °F 15.3 °F 19.4 °F 80% 29.88 in 7.0 mi West 9.2 mph - N/A Snow Light Snow
9:56 PM 24.8 °F 16.1 °F 21.2 °F 86% 29.88 in 5.0 mi WSW 8.1 mph - N/A Snow Light Snow
10:17 PM 24.8 °F 16.9 °F 21.2 °F 86% 29.88 in 7.0 mi WSW 6.9 mph - N/A Snow Light Snow
10:37 PM 24.8 °F 16.1 °F 21.2 °F 86% 29.88 in 10.0 mi WSW 8.1 mph 16.1 mph N/A Snow Light Snow
10:56 PM 24.8 °F 17.9 °F 21.2 °F 86% 29.88 in 10.0 mi West 5.8 mph - N/A Snow Light Snow
11:17 PM 24.8 °F 15.3 °F 21.2 °F 86% 29.88 in 10.0 mi WSW 9.2 mph 17.3 mph N/A   Clear
11:36 PM 24.8 °F 15.3 °F 19.4 °F 80% 29.88 in 10.0 mi West 9.2 mph - N/A   Clear
11:56 PM 24.8 °F 15.3 °F 19.4 °F 80% 29.88 in 10.0 mi West 9.2 mph - N/A   Clear